Regional Weather Roundup
Issued by NWS Sterling, VA

Home | Current Version | Previous Version | Graphics & Text | Print | Product List | Glossary On
Versions: 1 2 3 4 5 6 7 8 9 10 11 12 13 14 15 16 17 18 19 20 21 22 23 24 25 26 27
000
ASUS41 KLWX 221011
RWRLWX

REGIONAL WEATHER ROUNDUP
NATIONAL WEATHER SERVICE BALTIMORE MD/WASHINGTON DC
600 AM EDT SUN OCT 22 2017

Note: "FAIR" indicates few or no clouds below 12,000 feet
with no significant weather and/or obstructions to visibility.
 TC=TEMPERATURE CELSIUS

 * =Non NWS site. Station does not report precipitation (e.g. rain,
    snow, etc.), thunder, or fog.

DCZ001-MDZ009-015-VAZ040>042-051-053>054-221100-
WASHINGTON METRO

CITY           SKY/WX    TMP DP  RH WIND       PRES   REMARKS
WASHINGTON NAT MOCLDY    54  50  86 NE5       30.38R
DULLES         PTCLDY    47  46  97 CALM      30.36R
ANDREWS AFB    CLEAR     46  44  92 CALM      30.36R
FT BELVOIR     CLEAR     47  46  96 CALM      30.37R
QUANTICO       CLEAR     51  50  96 NW8       30.38R
COLLEGE PARK*  CLEAR     46  45  97 CALM      30.37R
LEESBURG*      CLEAR     50  50 100 CALM      30.38R
MANASSAS*      CLEAR     44  43  96 CALM      30.37R
GAITHERSBURG*  CLEAR     48  45  89 CALM      30.37R

$$

MDZ006>007-011-014-221100-
BALTIMORE METRO

CITY           SKY/WX    TMP DP  RH WIND       PRES   REMARKS
BWI AIRPORT    MOCLDY    47  46  97 CALM      30.37R
MD SCIENCE CTR   N/A     56  50  80 MISG      30.38R
MARTIN STATE   CLEAR     48  48 100 CALM      30.39R
ANNAPOLIS      CLEAR     56  56 100 CALM      30.37R
FORT MEADE*    CLEAR     43  41  93 CALM      30.40R

$$

MDZ012-015-019>023-221100-
MARYLAND EASTERN SHORE

CITY           SKY/WX    TMP DP  RH WIND       PRES   REMARKS
OCEAN CITY     CLOUDY    48  48 100 CALM      30.38R FOG
SALISBURY      FOG       47  47 100 CALM      30.37R VSB 1/4
CAMBRIDGE*     CLEAR     48  46  93 CALM      30.37R FOG
EASTON*        MOCLDY    50  46  87 CALM      30.41R

$$

MDZ017>025-221100-
SOUTHERN MARYLAND

CITY           SKY/WX    TMP DP  RH WIND       PRES   REMARKS
PATUXENT RIVER FOG       48  48 100 W3        30.37R VSB 3/4
ST INIGOES     MOCLDY    49  48  97 CALM      30.36R FOG
LEONARDTOWN*   NOT AVBL

$$

MDZ003>005-221100-
NORTH CENTRAL MARYLAND

CITY           SKY/WX    TMP DP  RH WIND       PRES   REMARKS
FREDERICK*     CLEAR     45  45 100 CALM      30.40R FOG
HAGERSTOWN APT CLEAR     54  46  74 CALM      30.35R
WESTMINSTER*   CLEAR     52  45  76 CALM      30.37R

$$

MDZ501>502-221100-
WESTERN MARYLAND

CITY           SKY/WX    TMP DP  RH WIND       PRES   REMARKS
OAKLAND*       CLEAR     52  46  82 SE9       30.33R
CUMBERLAND*    CLEAR     46  46 100 CALM      30.39R

$$

VAZ025>031-221100-
SHENANDOAH VALLEY

CITY           SKY/WX    TMP DP  RH WIND       PRES   REMARKS
WINCHESTER*    PTCLDY    45  43  93 CALM      30.35R
FRONT ROYAL*   CLEAR     46  46 100 MISG      30.35R
LURAY*         CLEAR     46  46 100 CALM      30.36R
NEW MARKET*    CLEAR     44  43  96 CALM      30.36R
STAUNTON*      PTCLDY    43  42  97 CALM      30.38R FOG
WAYNESBORO*    CLEAR     49  49  99 CALM      30.37R

$$

WVZ021-048>050-054>055-221100-
EASTERN WEST VIRGINIA PANHANDLE

CITY           SKY/WX    TMP DP  RH WIND       PRES   REMARKS
MARTINSBURG    CLEAR     47  44  90 CALM      30.35R
PETERSBURG*    CLOUDY    42  42  99 CALM      30.36R FOG

$$

VAZ036>039-050-221100-
CENTRAL FOOTHILLS

CITY           SKY/WX    TMP DP  RH WIND       PRES   REMARKS
CHARLOTTESVILL CLEAR     52  50  93 CALM      30.36R
CULPEPER*      CLEAR     46  44  95 CALM      30.38R
ORANGE*        CLEAR     46  46 100 CALM      30.36R
GORDONSVILLE*  CLEAR     47  47 100 CALM      30.36R FOG
WARRENTON*     CLEAR     42  39  88 CALM      30.36R

$$

VAZ055>057-221100-
NORTH AND CENTRAL PIEDMONT

CITY           SKY/WX    TMP DP  RH WIND       PRES   REMARKS
FREDERICKSBRG* CLEAR     48  48 100 CALM      30.36R
STAFFORD*      CLEAR     43  43 100 CALM      30.41R

$$

NCZ024-NYZ072-PAZ021-071-VAZ022-071-221100-
OTHER REGIONAL OBSERVATIONS

CITY           SKY/WX    TMP DP  RH WIND       PRES   REMARKS
NEW YORK CITY  CLEAR     59  48  67 CALM      30.40R
PHILADELPHIA   CLOUDY    53  48  83 CALM      30.38R
PITTSBURGH     PTCLDY    50  48  93 CALM      30.29R
ROANOKE        MOCLDY    50  49  96 CALM      30.37R
RICHMOND       PTCLDY    52  50  93 CALM      30.35R
RALEIGH        MOCLDY    52  52 100 CALM      30.34S

$$

ANZ530>537-221100-
MARINE OBSERVATIONS

STATION/POSITION TIME  TEMP    WIND        PRES
                       AIR SEA DIR/SP/G
                 (UTC) (F)     (DEG/KT/KT) (MB)
THOMAS PT LIGHT  1000   62 68  290/  2/  3   N/A
BALT KEY BRIDGE  0948   59     340/  2/  3 1028.5R
COVE POINT       0948   63     200/  3/  5 1028.8R
LEWISETTA        0948   58 66  240/  2/  2 1028.0R
SOLOMONS ISLAND  0948   59 69  300/  1/  2 1027.8R
PINEY POINT      0936          180/  2/  2   N/A

$$





USA.gov is the U.S. government's official web portal to all federal, state and local government web resources and services.